Satellite: NOAA-12 Catalog number: 21263 Epoch time: 13094.50402485 Element set: 776 Inclination: 098.7028 deg RA of node: 120.4538 deg Eccentricity: 0.0014826 Arg of perigee: 076.9789 deg Mean anomaly: 083.4454 deg Mean motion: 14.25553847 rev/day Decay rate: 7.2e-07 rev/day^2 Epoch rev: 13805 Checksum: 315
Satellite: MET-3/5 Catalog number: 21655 Epoch time: 13093.80172163 Element set: 657 Inclination: 082.5540 deg RA of node: 306.8599 deg Eccentricity: 0.0012366 Arg of perigee: 318.4591 deg Mean anomaly: 041.5591 deg Mean motion: 13.17044530 rev/day Decay rate: 8.8e-07 rev/day^2 Epoch rev: 4014 Checksum: 291
Satellite: MET-2/21 Catalog number: 22782 Epoch time: 13094.14788034 Element set: 704 Inclination: 082.5500 deg RA of node: 161.6660 deg Eccentricity: 0.0023286 Arg of perigee: 060.1481 deg Mean anomaly: 358.5199 deg Mean motion: 13.83701777 rev/day Decay rate: -3.0e-08 rev/day^2 Epoch rev: 98940 Checksum: 306
Satellite: OKEAN-4 Catalog number: 23317 Epoch time: 13094.18145878 Element set: 182 Inclination: 082.5364 deg RA of node: 119.0556 deg Eccentricity: 0.0022975 Arg of perigee: 110.6029 deg Mean anomaly: 317.5480 deg Mean motion: 14.84320851 rev/day Decay rate: 1.203e-05 rev/day^2 Epoch rev: 99796 Checksum: 308
Satellite: NOAA-14 Catalog number: 23455 Epoch time: 13094.42052519 Element set: 260 Inclination: 098.8036 deg RA of node: 179.9725 deg Eccentricity: 0.0009380 Arg of perigee: 201.4378 deg Mean anomaly: 297.8885 deg Mean motion: 14.13899798 rev/day Decay rate: -2.5e-07 rev/day^2 Epoch rev: 94194 Checksum: 348
Satellite: NOAA-15 Catalog number: 25338 Epoch time: 13094.44970964 Element set: 681 Inclination: 098.7207 deg RA of node: 085.0730 deg Eccentricity: 0.0010130 Arg of perigee: 348.3435 deg Mean anomaly: 158.8661 deg Mean motion: 14.25194588 rev/day Decay rate: 1.81e-06 rev/day^2 Epoch rev: 77433 Checksum: 319
Satellite: RESURS Catalog number: 25394 Epoch time: 13093.69420412 Element set: 342 Inclination: 098.3554 deg RA of node: 073.1315 deg Eccentricity: 0.0002596 Arg of perigee: 105.9734 deg Mean anomaly: 358.7680 deg Mean motion: 14.24325061 rev/day Decay rate: 1.0e-08 rev/day^2 Epoch rev: 76575 Checksum: 288
Satellite: FENGYUN1 Catalog number: 25730 Epoch time: 13093.90007008 Element set: 842 Inclination: 098.8736 deg RA of node: 054.3516 deg Eccentricity: 0.0022500 Arg of perigee: 255.4968 deg Mean anomaly: 138.1239 deg Mean motion: 14.10335062 rev/day Decay rate: 1.555e-05 rev/day^2 Epoch rev: 71557 Checksum: 286
Satellite: OKEAN-0 Catalog number: 25860 Epoch time: 13094.50438920 Element set: 910 Inclination: 097.9828 deg RA of node: 057.9787 deg Eccentricity: 0.0001740 Arg of perigee: 080.2420 deg Mean anomaly: 069.7715 deg Mean motion: 14.74524308 rev/day Decay rate: 6.12e-06 rev/day^2 Epoch rev: 73749 Checksum: 315
Satellite: NOAA-16 Catalog number: 26536 Epoch time: 13094.41645777 Element set: 157 Inclination: 099.0506 deg RA of node: 146.4232 deg Eccentricity: 0.0009938 Arg of perigee: 348.6808 deg Mean anomaly: 131.6647 deg Mean motion: 14.12854368 rev/day Decay rate: 2.79e-06 rev/day^2 Epoch rev: 64615 Checksum: 337
Satellite: NOAA-17 Catalog number: 27453 Epoch time: 13094.48052913 Element set: 81 Inclination: 098.3157 deg RA of node: 112.4601 deg Eccentricity: 0.0011866 Arg of perigee: 028.4121 deg Mean anomaly: 134.5074 deg Mean motion: 14.24548969 rev/day Decay rate: 1.92e-06 rev/day^2 Epoch rev: 56022 Checksum: 288
Satellite: NOAA-18 Catalog number: 28654 Epoch time: 13094.46047044 Element set: 563 Inclination: 099.0925 deg RA of node: 061.6473 deg Eccentricity: 0.0015145 Arg of perigee: 058.9545 deg Mean anomaly: 093.3708 deg Mean motion: 14.11791187 rev/day Decay rate: 2.45e-06 rev/day^2 Epoch rev: 40565 Checksum: 318
Satellite: NOAA-19 Catalog number: 33591 Epoch time: 13094.52496319 Element set: 751 Inclination: 098.8987 deg RA of node: 037.1918 deg Eccentricity: 0.0013009 Arg of perigee: 278.4652 deg Mean anomaly: 188.6976 deg Mean motion: 14.11478624 rev/day Decay rate: 2.56e-06 rev/day^2 Epoch rev: 21410 Checksum: 339
/EX SB KEPS @ AMSAT $ORB13094.M Orbital Elements 13094.MISC
HR AMSAT ORBITAL ELEMENTS FOR MANNED AND MISCELLANEOUS SATELLITES FROM WA5QGD FORT WORTH,TX April 4, 2013 BID: ORB13094.M TO ALL RADIO AMATEURS BT
Satellite: HUBBLE Catalog number: 20580 Epoch time: 13094.11849729 Element set: 209 Inclination: 028.4710 deg RA of node: 038.3181 deg Eccentricity: 0.0003086 Arg of perigee: 283.0604 deg Mean anomaly: 156.1290 deg Mean motion: 15.03421855 rev/day Decay rate: 2.313e-05 rev/day^2 Epoch rev: 5853 Checksum: 266
Satellite: ISS Catalog number: 25544 Epoch time: 13095.06956752 Element set: 546 Inclination: 051.6457 deg RA of node: 111.2662 deg Eccentricity: 0.0010616 Arg of perigee: 106.5150 deg Mean anomaly: 307.9038 deg Mean motion: 15.51991763 rev/day Decay rate: 3.34e-06 rev/day^2 Epoch rev: 82335 Checksum: 289
Satellite: CO-58 Catalog number: 28895 Epoch time: 13094.60499243 Element set: 443 Inclination: 097.8796 deg RA of node: 313.4903 deg Eccentricity: 0.0016465 Arg of perigee: 316.8326 deg Mean anomaly: 076.8493 deg Mean motion: 14.61017808 rev/day Decay rate: 7.83e-06 rev/day^2 Epoch rev: 39620 Checksum: 351
Satellite: FALCON Catalog number: 30776 Epoch time: 13092.99032002 Element set: 583 Inclination: 035.4313 deg RA of node: 303.5093 deg Eccentricity: 0.0001730 Arg of perigee: 344.1226 deg Mean anomaly: 131.8145 deg Mean motion: 15.09935009 rev/day Decay rate: 7.117e-05 rev/day^2 Epoch rev: 33404 Checksum: 256
Satellite: MAST Catalog number: 31126 Epoch time: 13093.98759866 Element set: 720 Inclination: 097.8792 deg RA of node: 094.1573 deg Eccentricity: 0.0091884 Arg of perigee: 284.1439 deg Mean anomaly: 130.4213 deg Mean motion: 14.54490161 rev/day Decay rate: 6.43e-06 rev/day^2 Epoch rev: 31653 Checksum: 317
Satellite: CAPE1 Catalog number: 31130 Epoch time: 13093.48882873 Element set: 730 Inclination: 097.8953 deg RA of node: 090.0142 deg Eccentricity: 0.0099367 Arg of perigee: 301.0689 deg Mean anomaly: 058.0784 deg Mean motion: 14.53378120 rev/day Decay rate: 8.85e-06 rev/day^2 Epoch rev: 31592 Checksum: 317
Satellite: COMPASS Catalog number: 32787 Epoch time: 13094.17614363 Element set: 586 Inclination: 097.7602 deg RA of node: 154.6468 deg Eccentricity: 0.0015164 Arg of perigee: 181.2408 deg Mean anomaly: 212.5965 deg Mean motion: 14.85153875 rev/day Decay rate: 2.753e-05 rev/day^2 Epoch rev: 26698 Checksum: 333
Satellite: AAUSAT2 Catalog number: 32788 Epoch time: 13093.80883190 Element set: 573 Inclination: 097.7608 deg RA of node: 154.8590 deg Eccentricity: 0.0014742 Arg of perigee: 182.3301 deg Mean anomaly: 242.8935 deg Mean motion: 14.85583229 rev/day Decay rate: 2.730e-05 rev/day^2 Epoch rev: 26696 Checksum: 332
Satellite: DO-64 Catalog number: 32789 Epoch time: 13094.15355233 Element set: 600 Inclination: 097.7753 deg RA of node: 158.5496 deg Eccentricity: 0.0014518 Arg of perigee: 175.4921 deg Mean anomaly: 237.1823 deg Mean motion: 14.87915694 rev/day Decay rate: 4.539e-05 rev/day^2 Epoch rev: 26711 Checksum: 340
Satellite: CO-66 Catalog number: 32791 Epoch time: 13094.17153497 Element set: 570 Inclination: 097.7601 deg RA of node: 154.0980 deg Eccentricity: 0.0015759 Arg of perigee: 182.8619 deg Mean anomaly: 239.6868 deg Mean motion: 14.84358514 rev/day Decay rate: 2.169e-05 rev/day^2 Epoch rev: 26689 Checksum: 362
Satellite: RS-30 Catalog number: 32953 Epoch time: 13094.57551682 Element set: 737 Inclination: 082.4984 deg RA of node: 113.9712 deg Eccentricity: 0.0019747 Arg of perigee: 036.8512 deg Mean anomaly: 323.3923 deg Mean motion: 12.43032707 rev/day Decay rate: 1.0e-07 rev/day^2 Epoch rev: 22076 Checksum: 293
Satellite: METEOR-M Catalog number: 35865 Epoch time: 13094.69026614 Element set: 338 Inclination: 098.6104 deg RA of node: 148.8902 deg Eccentricity: 0.0001786 Arg of perigee: 305.2496 deg Mean anomaly: 054.8517 deg Mean motion: 14.21882202 rev/day Decay rate: -2.1e-07 rev/day^2 Epoch rev: 18402 Checksum: 293
Satellite: RS-38 Catalog number: 35869 Epoch time: 13094.66562937 Element set: 312 Inclination: 098.6050 deg RA of node: 148.8012 deg Eccentricity: 0.0004005 Arg of perigee: 296.5530 deg Mean anomaly: 063.5243 deg Mean motion: 14.22119114 rev/day Decay rate: 2.8e-07 rev/day^2 Epoch rev: 18404 Checksum: 287
Satellite: JUGNU Catalog number: 37839 Epoch time: 13093.96445426 Element set: 360 Inclination: 019.9629 deg RA of node: 036.5044 deg Eccentricity: 0.0019048 Arg of perigee: 185.4512 deg Mean anomaly: 240.5097 deg Mean motion: 14.12137136 rev/day Decay rate: 4.56e-06 rev/day^2 Epoch rev: 7639 Checksum: 306
Satellite: SRMSAT Catalog number: 37841 Epoch time: 13093.14339027 Element set: 361 Inclination: 019.9731 deg RA of node: 052.0500 deg Eccentricity: 0.0012008 Arg of perigee: 131.7219 deg Mean anomaly: 299.8475 deg Mean motion: 14.10210079 rev/day Decay rate: 3.97e-06 rev/day^2 Epoch rev: 7616 Checksum: 272
Satellite: RAX-2 Catalog number: 37853 Epoch time: 13093.71137576 Element set: 465 Inclination: 101.7173 deg RA of node: 272.8765 deg Eccentricity: 0.0238233 Arg of perigee: 240.7973 deg Mean anomaly: 250.7635 deg Mean motion: 14.82675952 rev/day Decay rate: 8.521e-05 rev/day^2 Epoch rev: 7740 Checksum: 326
Satellite: AUBIESAT Catalog number: 37854 Epoch time: 13094.49362794 Element set: 463 Inclination: 101.7208 deg RA of node: 274.7390 deg Eccentricity: 0.0238404 Arg of perigee: 237.3772 deg Mean anomaly: 155.8249 deg Mean motion: 14.83309508 rev/day Decay rate: 8.257e-05 rev/day^2 Epoch rev: 7753 Checksum: 331
